User: anonymous   Login
Location: Unspecified
(0.0000°N, 0.0000°E)
Time: 02:38:33
(UTC+00:00)
Language:

XM-1 - Orbit

View from above orbital plane
View from above orbital plane
View from above satellite
View from above satellite

Ground track
Ground track

The orbit data is extracted from the following two-line orbital elements,

1 26761U 01018A   21206.45120550 -.00000258  00000-0  00000-0 0  9991
2 26761   4.4581  79.0322 0004696 334.4614  22.1966  0.99009237 28419
Epoch (UTC): 25 July 2021 10:49:44
Eccentricity: 0.0004696
inclination: 4.4581°
perigee height: 36124 km
apogee height: 36164 km
right ascension of ascending node: 79.0322°
argument of perigee: 334.4614°
revolutions per day: 0.99009237
mean anomaly at epoch: 22.1966°
orbit number at epoch: 2841

The dashed part of the orbit path shows where the satellite is in the earth's shadow,  

DLR